This is the latest recevied weather packets stored in our database for station/object K1BES. If no packets are shown the sender has not sent any weather packets the latest 1 day(s).
| Time | Temp. | Humidity | Pressure | Rain* | Wind** | Luminosity | Snow |
|---|---|---|---|---|---|---|---|
| 1777992296 | 27.78° C | 67% | 1017.9 hPa | 0 mm | 0.45 m/s, 167° | 859 W/m² | - |
| 1777991993 | 27.78° C | 68% | 1017.6 hPa | 0 mm | 0 m/s | 845 W/m² | - |
| 1777991691 | 27.78° C | 68% | 1017.7 hPa | 0 mm | 0.45 m/s, 311° | 777 W/m² | - |
| 1777991388 | 27.78° C | 67% | 1017.7 hPa | 0 mm | 0.45 m/s, 38° | 342 W/m² | - |
| 1777991085 | 27.22° C | 69% | 1017.7 hPa | 0 mm | 0 m/s | 713 W/m² | - |
| 1777990782 | 27.22° C | 68% | 1017.7 hPa | 0 mm | 0.45 m/s, 46° | 531 W/m² | - |
| 1777990479 | 27.22° C | 69% | 1017.3 hPa | 0 mm | 0.45 m/s, 148° | 597 W/m² | - |
| 1777990176 | 26.67° C | 69% | 1017.4 hPa | 0 mm | 0.89 m/s, 71° | 600 W/m² | - |
| 1777989873 | 27.22° C | 70% | 1017.6 hPa | 0 mm | 1.34 m/s, 112° | 593 W/m² | - |
| 1777989571 | 27.22° C | 69% | 1017.3 hPa | 0 mm | 0.89 m/s, 57° | 565 W/m² | - |
| 1777989266 | 26.67° C | 70% | 1017.4 hPa | 0 mm | 0.45 m/s, 63° | 531 W/m² | - |
| 1777988963 | 26.67° C | 70% | 1017.5 hPa | 0 mm | 0.45 m/s, 66° | 461 W/m² | - |
| 1777988659 | 26.11° C | 70% | 1017.5 hPa | 0 mm | 0.89 m/s, 188° | 498 W/m² | - |
| 1777988355 | 26.11° C | 71% | 1017.2 hPa | 0 mm | 0.45 m/s, 56° | 487 W/m² | - |
| 1777988053 | 26.11° C | 70% | 1017.3 hPa | 0 mm | 0.45 m/s, 57° | 464 W/m² | - |
| 1777987748 | 26.11° C | 70% | 1017.2 hPa | 0 mm | 0.45 m/s, 73° | 439 W/m² | - |
| 1777987446 | 26.11° C | 71% | 1017.3 hPa | 0 mm | 0.45 m/s, 69° | 424 W/m² | - |
| 1777987143 | 26.11° C | 70% | 1017.4 hPa | 0 mm | 0.45 m/s, 64° | 400 W/m² | - |
| 1777986840 | 26.11° C | 72% | 1017.2 hPa | 0 mm | 0 m/s | 247 W/m² | - |
| 1777986538 | 25.56° C | 73% | 1017.3 hPa | 0 mm | 0.45 m/s, 54° | 322 W/m² | - |
| 1777986235 | 25° C | 74% | 1017.4 hPa | 0 mm | 0.45 m/s, 52° | 277 W/m² | - |
| 1777985932 | 25° C | 74% | 1017.2 hPa | 0 mm | 0 m/s | 234 W/m² | - |
| 1777985630 | 24.44° C | 77% | 1017.3 hPa | 0 mm | 0 m/s | 162 W/m² | - |
| 1777985326 | 23.89° C | 77% | 1017.3 hPa | 0 mm | 0.45 m/s, 335° | 152 W/m² | - |
| 1777985023 | 23.89° C | 78% | 1017.4 hPa | 0 mm | 0 m/s | 142 W/m² | - |
* Rain latest hour (hover to see other rain measurements)
** Current wind speed in m/s (hover to see current wind gust speed)